Torna al catalogo

ERS 6

AttivoScienzaPO
NORAD 608·PAYLOAD·🇺🇸 United States

Lanciato May 9, 1963 da Vandenberg Space Force Base

Loading…

Prossimi Passaggi (prossime 24 ore)

TLE

AggiornatoSource: Space-Track

Epoca: Sep 14, 2026, 05:49 UTC

1 00608U 63014C   26257.24262523 -.00000003  00000-0 -29051-2 0  9990
2 00608  87.3632 184.9887 0011838 264.0759  95.8746  8.65282487  1172

Traccia ERS 6 in tempo reale con AllMySat

Download on the App Store